#timestamp,LO_Frequency,Hit,Temp,Hum 
1479668415.6,286046987.9,N,0.0,0.0
1479668435.5,286046985.7,N,0.0,0.0
1479668455.3,286046987.9,N,0.0,0.0
1479668475.1,286046985.8,N,0.0,0.0
1479668495.9,286046985.4,N,0.0,0.0
1479668515.7,286046985.8,N,0.0,0.0
1479668535.6,286046987.6,N,0.0,0.0
1479668555.4,286046985.3,N,0.0,0.0
1479668575.2,286046987.9,N,0.0,0.0
1479668595.1,286046987.5,N,0.0,0.0
1479668596.0,286046987.5,N,0.0,0.0
1479668615.8,286046991.6,N,0.0,0.0
1479668635.6,286046989.3,N,0.0,0.0
1479668655.5,286046988.7,N,0.0,0.0
1479668675.3,286046988.5,N,0.0,0.0
1479668695.2,286046990.2,N,0.0,0.0
1479668715.9,286046992.7,N,0.0,0.0
1479668735.7,286046992.1,N,0.0,0.0
1479668755.6,286046992.1,N,0.0,0.0
1479668775.4,286046992.0,N,0.0,0.0
1479668795.2,286046991.3,N,0.0,0.0
1479668815.1,286046990.8,N,0.0,0.0
1479668816.0,286046990.8,N,0.0,0.0
1479668835.8,286046991.7,N,0.0,0.0
1479668855.7,286046993.8,N,0.0,0.0
1479668875.5,286046995.6,N,0.0,0.0
1479668895.3,286046996.6,N,0.0,0.0
1479668915.2,286046996.7,N,0.0,0.0
1479668935.0,286046998.0,N,0.0,0.0
1479668935.9,286046998.0,N,0.0,0.0
1479668955.8,286046993.7,N,0.0,0.0
1479668975.6,286046998.0,N,0.0,0.0
1479668995.4,286046997.4,N,0.0,0.0
1479669015.3,286046996.9,N,0.0,0.0
1479669035.1,286046997.0,N,0.0,0.0
1479669055.9,286046999.4,N,0.0,0.0
1479669075.7,286046998.8,N,0.0,0.0
1479669095.5,286046998.3,N,0.0,0.0
1479669115.4,286047000.9,N,0.0,0.0
1479669135.2,286047000.9,N,0.0,0.0
1479669155.0,286047002.3,N,0.0,0.0
1479669155.9,286047002.3,N,0.0,0.0
1479669175.8,286047003.9,N,0.0,0.0
1479669195.6,286047004.0,N,0.0,0.0
1479669215.5,286047003.5,N,0.0,0.0
1479669235.3,286047001.3,N,0.0,0.0
1479669255.1,286047001.6,N,0.0,0.0
1479669275.9,286047001.7,N,0.0,0.0
1479669295.7,286047003.4,N,0.0,0.0
1479669315.5,286047005.8,N,0.0,0.0
1479669335.4,286047005.3,N,0.0,0.0
1479669355.2,286047002.9,N,0.0,0.0
1479669375.1,286047004.6,N,0.0,0.0
1479669376.0,286047004.6,N,0.0,0.0
1479669395.8,286047006.9,N,0.0,0.0
1479669415.6,286047008.8,N,0.0,0.0
1479669435.5,286047006.6,N,0.0,0.0
1479669455.3,286047008.8,N,0.0,0.0
1479669475.2,286047007.8,N,0.0,0.0
1479669495.9,286047010.7,N,0.0,0.0
1479669515.7,286047008.4,N,0.0,0.0
1479669535.6,286047008.4,N,0.0,0.0
1479669555.4,286047008.7,N,0.0,0.0
1479669575.2,286047010.0,N,0.0,0.0
1479669595.1,286047010.1,N,0.0,0.0
1479669596.0,286047010.1,N,0.0,0.0
1479669615.8,286047012.0,N,0.0,0.0
1479669635.7,286047011.3,N,0.0,0.0
1479669655.5,286047013.1,N,0.0,0.0
1479669675.3,286047013.4,N,0.0,0.0
1479669695.2,286047013.7,N,0.0,0.0
1479669715.0,286047013.4,N,0.0,0.0
1479669715.9,286047013.4,N,0.0,0.0
1479669735.8,286047013.3,N,0.0,0.0
1479669755.6,286047013.2,N,0.0,0.0
1479669775.4,286047012.6,N,0.0,0.0
1479669795.3,286047015.0,N,0.0,0.0
1479669815.1,286047017.0,N,0.0,0.0
1479669835.8,286047014.6,N,0.0,0.0
1479669855.7,286047017.1,N,0.0,0.0
1479669875.5,286047016.5,N,0.0,0.0
1479669895.4,286047018.7,N,0.0,0.0
1479669915.2,286047018.8,N,0.0,0.0
1479669935.0,286047018.7,N,0.0,0.0
1479669935.9,286047018.7,N,0.0,0.0
1479669955.8,286047015.9,N,0.0,0.0
1479669975.6,286047016.2,N,0.0,0.0
1479669995.4,286047016.0,N,0.0,0.0
1479670015.3,286047018.4,N,0.0,0.0
1479670035.1,286047017.6,N,0.0,0.0
1479670055.9,286047019.4,N,0.0,0.0
1479670075.7,286047019.5,N,0.0,0.0
1479670095.5,286047019.5,N,0.0,0.0
1479670115.4,286047019.9,N,0.0,0.0
1479670135.2,286047021.9,N,0.0,0.0
1479670155.0,286047021.2,N,0.0,0.0
1479670156.0,286047021.2,N,0.0,0.0
1479670175.8,286047021.7,N,0.0,0.0
1479670195.6,286047018.9,N,0.0,0.0
1479670215.5,286047019.0,N,0.0,0.0
1479670235.3,286047022.0,N,0.0,0.0
1479670255.1,286047021.2,N,0.0,0.0
1479670275.9,286047021.7,N,0.0,0.0
1479670295.7,286047020.6,N,0.0,0.0
1479670315.5,286047019.0,N,0.0,0.0
1479670335.4,286047021.0,N,0.0,0.0
1479670355.2,286047022.4,N,0.0,0.0
1479670375.1,286047024.2,N,0.0,0.0
1479670376.0,286047024.2,N,0.0,0.0
1479670395.8,286047024.2,N,0.0,0.0
1479670415.6,286047024.1,N,0.0,0.0
1479670435.5,286047024.0,N,0.0,0.0
1479670455.3,286047024.1,N,0.0,0.0
1479670475.2,286047024.5,N,0.0,0.0
1479670495.9,286047025.2,N,0.0,0.0
1479670515.7,286047022.5,N,0.0,0.0
1479670535.6,286047024.8,N,0.0,0.0
1479670555.4,286047024.6,N,0.0,0.0
1479670575.2,286047024.2,N,0.0,0.0
1479670595.1,286047026.8,N,0.0,0.0
1479670596.0,286047026.8,N,0.0,0.0
1479670615.8,286047026.1,N,0.0,0.0
1479670635.7,286047025.0,N,0.0,0.0
1479670655.5,286047022.2,N,0.0,0.0
1479670675.3,286047024.3,N,0.0,0.0
1479670695.2,286047024.5,N,0.0,0.0
1479670715.9,286047023.4,N,0.0,0.0
1479670735.7,286047023.5,N,0.0,0.0
1479670755.6,286047024.8,N,0.0,0.0
1479670775.4,286047025.6,N,0.0,0.0
1479670795.3,286047025.7,N,0.0,0.0
1479670815.1,286047027.9,N,0.0,0.0
1479670816.0,286047027.9,N,0.0,0.0
1479670835.8,286047028.3,N,0.0,0.0
1479670855.7,286047025.8,N,0.0,0.0
1479670875.5,286047024.1,N,0.0,0.0
1479670895.3,286047025.8,N,0.0,0.0
1479670915.2,286047027.7,N,0.0,0.0
1479670935.0,286047029.2,N,0.0,0.0
1479670935.9,286047029.2,N,0.0,0.0
1479670955.8,286047029.2,N,0.0,0.0
1479670975.6,286047028.3,N,0.0,0.0
1479670995.4,286047024.0,N,0.0,0.0
1479671015.3,286047025.9,N,0.0,0.0
1479671035.1,286047028.1,N,0.0,0.0
1479671055.9,286047027.0,N,0.0,0.0
1479671075.7,286047029.6,N,0.0,0.0
1479671095.5,286047027.4,N,0.0,0.0
1479671115.4,286047024.3,N,0.0,0.0
1479671135.2,286047024.2,N,0.0,0.0
1479671155.0,286047027.8,N,0.0,0.0
1479671155.9,286047027.8,N,0.0,0.0
1479671175.8,286047027.4,N,0.0,0.0
1479671195.6,286047031.5,N,0.0,0.0
1479671215.5,286047032.3,N,0.0,0.0
1479671235.3,286047034.7,N,0.0,0.0
1479671255.1,286047035.9,N,0.0,0.0
1479671275.9,286047035.8,N,0.0,0.0
1479671295.7,286047035.2,N,0.0,0.0
1479671315.5,286047035.2,N,0.0,0.0
1479671335.4,286047034.8,N,0.0,0.0
1479671355.2,286047034.3,N,0.0,0.0
1479671375.1,286047035.9,N,0.0,0.0
1479671376.0,286047035.9,N,0.0,0.0
1479671395.8,286047035.7,N,0.0,0.0
1479671415.6,286047037.2,N,0.0,0.0
1479671435.5,286047037.0,N,0.0,0.0
1479671455.3,286047039.0,N,0.0,0.0
1479671475.1,286047038.5,N,0.0,0.0
1479671495.9,286047040.5,N,0.0,0.0
1479671515.7,286047040.9,N,0.0,0.0
1479671535.6,286047042.6,N,0.0,0.0
1479671555.4,286047040.0,N,0.0,0.0
1479671575.2,286047042.3,N,0.0,0.0
1479671595.1,286047039.7,N,0.0,0.0
1479671596.0,286047039.7,N,0.0,0.0
1479671615.8,286047042.6,N,0.0,0.0
1479671635.7,286047041.4,N,0.0,0.0
1479671655.5,286047043.5,N,0.0,0.0
1479671675.3,286047045.9,N,0.0,0.0
1479671695.2,286047043.8,N,0.0,0.0
1479671715.9,286047041.7,N,0.0,0.0
1479671735.7,286047042.3,N,0.0,0.0
1479671755.6,286047041.9,N,0.0,0.0
1479671775.4,286047044.0,N,0.0,0.0
1479671795.3,286047042.2,N,0.0,0.0
1479671815.1,286047040.1,N,0.0,0.0
1479671816.0,286047040.1,N,0.0,0.0
1479671835.8,286047041.5,N,0.0,0.0
1479671855.7,286047043.1,N,0.0,0.0
1479671875.5,286047043.0,N,0.0,0.0
1479671895.3,286047041.6,N,0.0,0.0
1479671915.2,286047041.4,N,0.0,0.0
1479671935.0,286047043.8,N,0.0,0.0
1479671935.9,286047043.8,N,0.0,0.0
1479671955.8,286047046.0,N,0.0,0.0
1479671975.6,286047042.9,N,0.0,0.0
1479671995.4,286047043.2,N,0.0,0.0
